Year,Month,Day,Hour,Minute,Value (Times are PST for windgust in km/hr)
2010,10,24,00,00,24.20
2010,10,24,00,01,19.30
2010,10,24,00,02,32.20
2010,10,24,00,03,40.20
2010,10,24,00,04,46.70
2010,10,24,00,05,46.70
2010,10,24,00,06,48.30
2010,10,24,00,07,37.00
2010,10,24,00,08,48.30
2010,10,24,00,09,53.10
2010,10,24,00,10,48.30
2010,10,24,00,11,43.50
2010,10,24,00,12,43.50
2010,10,24,00,13,54.70
2010,10,24,00,14,46.70
2010,10,24,00,15,33.80
2010,10,24,00,16,43.50
2010,10,24,00,17,40.20
2010,10,24,00,18,45.10
2010,10,24,00,19,57.90
2010,10,24,00,20,49.90
2010,10,24,00,21,43.50
2010,10,24,00,22,46.70
2010,10,24,00,23,57.90
2010,10,24,00,24,45.10
2010,10,24,00,25,54.70
2010,10,24,00,26,43.50
2010,10,24,00,27,57.90
2010,10,24,00,28,43.50
2010,10,24,00,29,53.10
2010,10,24,00,30,46.70
2010,10,24,00,31,48.30
2010,10,24,00,32,45.10
2010,10,24,00,33,48.30
2010,10,24,00,34,48.30
2010,10,24,00,35,48.30
2010,10,24,00,36,40.20
2010,10,24,00,37,53.10
2010,10,24,00,38,51.50
2010,10,24,00,39,54.70
2010,10,24,00,40,53.10
2010,10,24,00,41,46.70
2010,10,24,00,42,37.00
2010,10,24,00,43,45.10
2010,10,24,00,44,38.60
2010,10,24,00,45,51.50
2010,10,24,00,46,53.10
2010,10,24,00,47,41.80
2010,10,24,00,48,35.40
2010,10,24,00,49,45.10
2010,10,24,00,50,48.30
2010,10,24,00,51,48.30
2010,10,24,00,52,54.70
2010,10,24,00,53,46.70
2010,10,24,00,54,30.60
2010,10,24,00,55,32.20
2010,10,24,00,56,35.40
2010,10,24,00,57,43.50
2010,10,24,00,58,38.60
2010,10,24,00,59,33.80
2010,10,24,01,00,49.90
2010,10,24,01,01,32.20
2010,10,24,01,02,19.30
2010,10,24,01,03,25.70
2010,10,24,01,04,38.60
2010,10,24,01,05,45.10
2010,10,24,01,06,35.40
2010,10,24,01,07,40.20
2010,10,24,01,08,37.00
2010,10,24,01,09,45.10
2010,10,24,01,10,40.20
2010,10,24,01,11,33.80
2010,10,24,01,12,35.40
2010,10,24,01,13,38.60
2010,10,24,01,14,40.20
2010,10,24,01,15,35.40
2010,10,24,01,16,40.20
2010,10,24,01,17,54.70
2010,10,24,01,18,53.10
2010,10,24,01,19,49.90
2010,10,24,01,20,35.40
2010,10,24,01,21,35.40
2010,10,24,01,22,54.70
2010,10,24,01,23,45.10
2010,10,24,01,24,75.60
2010,10,24,01,25,27.40
2010,10,24,01,26,19.30
2010,10,24,01,27,29.00
2010,10,24,01,28,43.50
2010,10,24,01,29,27.40
2010,10,24,01,30,41.80
2010,10,24,01,31,41.80
2010,10,24,01,32,24.20
2010,10,24,01,33,22.50
2010,10,24,01,34,37.00
2010,10,24,01,35,38.60
2010,10,24,01,36,38.60
2010,10,24,01,37,29.00
2010,10,24,01,38,40.20
2010,10,24,01,39,40.20
2010,10,24,01,40,45.10
2010,10,24,01,41,20.90
2010,10,24,01,42,45.10
2010,10,24,01,43,46.70
2010,10,24,01,44,29.00
2010,10,24,01,45,33.80
2010,10,24,01,46,43.50
2010,10,24,01,47,38.60
2010,10,24,01,48,29.00
2010,10,24,01,49,54.70
2010,10,24,01,50,38.60
2010,10,24,01,51,27.40
2010,10,24,01,52,40.20
2010,10,24,01,53,35.40
2010,10,24,01,54,29.00
2010,10,24,01,55,24.20
2010,10,24,01,56,38.60
2010,10,24,01,57,25.70
2010,10,24,01,58,35.40
2010,10,24,01,59,32.20
2010,10,24,02,00,41.80
2010,10,24,02,01,38.60
2010,10,24,02,02,33.80
2010,10,24,02,03,24.20
2010,10,24,02,04,30.60
2010,10,24,02,05,24.20
2010,10,24,02,06,29.00
2010,10,24,02,07,29.00
2010,10,24,02,08,35.40
2010,10,24,02,09,41.80
2010,10,24,02,10,46.70
2010,10,24,02,11,38.60
2010,10,24,02,12,25.70
2010,10,24,02,13,41.80
2010,10,24,02,14,38.60
2010,10,24,02,15,29.00
2010,10,24,02,16,32.20
2010,10,24,02,17,33.80
2010,10,24,02,18,33.80
2010,10,24,02,19,45.10
2010,10,24,02,20,30.60
2010,10,24,02,21,30.60
2010,10,24,02,22,27.40
2010,10,24,02,23,20.90
2010,10,24,02,24,22.50
2010,10,24,02,25,30.60
2010,10,24,02,26,32.20
2010,10,24,02,27,38.60
2010,10,24,02,28,19.30
2010,10,24,02,29,33.80
2010,10,24,02,30,45.10
2010,10,24,02,31,30.60
2010,10,24,02,32,33.80
2010,10,24,02,33,27.40
2010,10,24,02,34,27.40
2010,10,24,02,35,35.40
2010,10,24,02,36,24.20
2010,10,24,02,37,29.00
2010,10,24,02,38,24.20
2010,10,24,02,39,37.00
2010,10,24,02,40,24.20
2010,10,24,02,41,32.20
2010,10,24,02,42,33.80
2010,10,24,02,43,30.60
2010,10,24,02,44,32.20
2010,10,24,02,45,29.00
2010,10,24,02,46,41.80
2010,10,24,02,47,29.00
2010,10,24,02,48,22.50
2010,10,24,02,49,30.60
2010,10,24,02,50,27.40
2010,10,24,02,51,32.20
2010,10,24,02,52,33.80
2010,10,24,02,53,33.80
2010,10,24,02,54,24.20
2010,10,24,02,55,29.00
2010,10,24,02,56,33.80
2010,10,24,02,57,30.60
2010,10,24,02,58,32.20
2010,10,24,02,59,37.00
2010,10,24,03,00,30.60
2010,10,24,03,01,19.30
2010,10,24,03,02,24.20
2010,10,24,03,03,24.20
2010,10,24,03,04,35.40
2010,10,24,03,05,35.40
2010,10,24,03,06,29.00
2010,10,24,03,07,22.50
2010,10,24,03,08,25.70
2010,10,24,03,09,22.50
2010,10,24,03,10,32.20
2010,10,24,03,11,22.50
2010,10,24,03,12,24.20
2010,10,24,03,13,25.70
2010,10,24,03,14,27.40
2010,10,24,03,15,29.00
2010,10,24,03,16,22.50
2010,10,24,03,17,16.10
2010,10,24,03,18,14.50
2010,10,24,03,19,22.50
2010,10,24,03,20,33.80
2010,10,24,03,21,22.50
2010,10,24,03,22,25.70
2010,10,24,03,23,22.50
2010,10,24,03,24,25.70
2010,10,24,03,25,29.00
2010,10,24,03,26,30.60
2010,10,24,03,27,27.40
2010,10,24,03,28,30.60
2010,10,24,03,29,19.30
2010,10,24,03,30,37.00
2010,10,24,03,31,29.00
2010,10,24,03,32,22.50
2010,10,24,03,33,22.50
2010,10,24,03,34,17.70
2010,10,24,03,35,22.50
2010,10,24,03,36,22.50
2010,10,24,03,37,24.20
2010,10,24,03,38,27.40
2010,10,24,03,39,17.70
2010,10,24,03,40,25.70
2010,10,24,03,41,20.90
2010,10,24,03,42,24.20
2010,10,24,03,43,33.80
2010,10,24,03,44,30.60
2010,10,24,03,45,19.30
2010,10,24,03,46,14.50
2010,10,24,03,47,14.50
2010,10,24,03,48,11.30
2010,10,24,03,49,11.30
2010,10,24,03,50,12.90
2010,10,24,03,51,11.30
2010,10,24,03,52,25.70
2010,10,24,03,53,29.00
2010,10,24,03,54,29.00
2010,10,24,03,55,20.90
2010,10,24,03,56,9.60
2010,10,24,03,57,12.90
2010,10,24,03,58,24.20
2010,10,24,03,59,30.60
2010,10,24,04,00,37.00
2010,10,24,04,01,32.20
2010,10,24,04,02,35.40
2010,10,24,04,03,25.70
2010,10,24,04,04,41.80
2010,10,24,04,05,20.90
2010,10,24,04,06,29.00
2010,10,24,04,07,27.40
2010,10,24,04,08,33.80
2010,10,24,04,09,24.20
2010,10,24,04,10,22.50
2010,10,24,04,11,19.30
2010,10,24,04,12,25.70
2010,10,24,04,13,24.20
2010,10,24,04,14,24.20
2010,10,24,04,15,22.50
2010,10,24,04,16,14.50
2010,10,24,04,17,14.50
2010,10,24,04,18,25.70
2010,10,24,04,19,30.60
2010,10,24,04,20,24.20
2010,10,24,04,21,19.30
2010,10,24,04,22,27.40
2010,10,24,04,23,19.30
2010,10,24,04,24,30.60
2010,10,24,04,25,20.90
2010,10,24,04,26,12.90
2010,10,24,04,27,25.70
2010,10,24,04,28,24.20
2010,10,24,04,29,17.70
2010,10,24,04,30,19.30
2010,10,24,04,31,24.20
2010,10,24,04,32,19.30
2010,10,24,04,33,24.20
2010,10,24,04,34,11.30
2010,10,24,04,35,22.50
2010,10,24,04,36,19.30
2010,10,24,04,37,19.30
2010,10,24,04,38,12.90
2010,10,24,04,39,11.30
2010,10,24,04,40,14.50
2010,10,24,04,41,11.30
2010,10,24,04,42,17.70
2010,10,24,04,43,14.50
2010,10,24,04,44,17.70
2010,10,24,04,45,16.10
2010,10,24,04,46,12.90
2010,10,24,04,47,14.50
2010,10,24,04,48,20.90
2010,10,24,04,49,17.70
2010,10,24,04,50,17.70
2010,10,24,04,51,14.50
2010,10,24,04,52,12.90
2010,10,24,04,53,9.60
2010,10,24,04,54,25.70
2010,10,24,04,55,19.30
2010,10,24,04,56,20.90
2010,10,24,04,57,14.50
2010,10,24,04,58,17.70
2010,10,24,04,59,17.70
2010,10,24,05,00,20.90
2010,10,24,05,01,22.50
2010,10,24,05,02,24.20
2010,10,24,05,03,27.40
2010,10,24,05,04,14.50
2010,10,24,05,05,11.30
2010,10,24,05,06,16.10
2010,10,24,05,07,14.50
2010,10,24,05,08,12.90
2010,10,24,05,09,16.10
2010,10,24,05,10,11.30
2010,10,24,05,11,8.10
2010,10,24,05,12,16.10
2010,10,24,05,13,8.10
2010,10,24,05,14,19.30
2010,10,24,05,15,12.90
2010,10,24,05,16,16.10
2010,10,24,05,17,17.70
2010,10,24,05,18,11.30
2010,10,24,05,19,9.60
2010,10,24,05,20,8.10
2010,10,24,05,21,11.30
2010,10,24,05,22,8.10
2010,10,24,05,23,4.80
2010,10,24,05,24,4.80
2010,10,24,05,25,4.80
2010,10,24,05,26,6.40
2010,10,24,05,27,8.10
2010,10,24,05,28,9.60
2010,10,24,05,29,6.40
2010,10,24,05,30,3.20
2010,10,24,05,31,1.60
2010,10,24,05,32,1.60
2010,10,24,05,33,3.20
2010,10,24,05,34,8.10
2010,10,24,05,35,4.80
2010,10,24,05,36,3.20
2010,10,24,05,37,4.80
2010,10,24,05,38,3.20
2010,10,24,05,39,1.60
2010,10,24,05,40,3.20
2010,10,24,05,41,3.20
2010,10,24,05,42,1.60
2010,10,24,05,43,3.20
2010,10,24,05,44,1.60
2010,10,24,05,45,1.60
2010,10,24,05,46,1.60
2010,10,24,05,47,1.60
2010,10,24,05,49,3.20
2010,10,24,05,50,3.20
2010,10,24,05,51,1.60
2010,10,24,05,52,1.60
2010,10,24,05,55,1.60
2010,10,24,05,56,1.60
2010,10,24,06,04,1.60
2010,10,24,06,05,3.20
2010,10,24,06,06,1.60
2010,10,24,06,08,1.60
2010,10,24,06,09,1.60
2010,10,24,06,10,1.60
2010,10,24,06,17,1.60
2010,10,24,06,20,1.60
2010,10,24,06,21,1.60
2010,10,24,06,25,1.60
2010,10,24,06,27,1.60
2010,10,24,06,28,1.60
2010,10,24,06,33,1.60
2010,10,24,06,34,1.60
2010,10,24,06,36,1.60
2010,10,24,06,37,3.20
2010,10,24,06,39,1.60
2010,10,24,06,40,1.60
2010,10,24,06,41,1.60
2010,10,24,06,42,1.60
2010,10,24,06,43,3.20
2010,10,24,06,44,1.60
2010,10,24,06,46,1.60
2010,10,24,06,48,1.60
2010,10,24,06,50,3.20
2010,10,24,07,01,1.60
2010,10,24,07,06,1.60
2010,10,24,07,09,3.20
2010,10,24,07,10,3.20
2010,10,24,07,11,3.20
2010,10,24,07,12,1.60
2010,10,24,07,14,3.20
2010,10,24,07,21,1.60
2010,10,24,07,22,1.60
2010,10,24,07,28,1.60
2010,10,24,07,35,1.60
2010,10,24,07,46,3.20
2010,10,24,07,47,3.20
2010,10,24,07,48,4.80
2010,10,24,07,49,4.80
2010,10,24,07,50,4.80
2010,10,24,07,51,4.80
2010,10,24,07,52,6.40
2010,10,24,07,53,3.20
2010,10,24,07,54,3.20
2010,10,24,07,55,1.60
2010,10,24,07,56,1.60
2010,10,24,07,57,3.20
2010,10,24,07,58,3.20
2010,10,24,07,59,3.20
2010,10,24,08,00,1.60
2010,10,24,08,01,1.60
2010,10,24,08,02,3.20
2010,10,24,08,03,3.20
2010,10,24,08,04,1.60
2010,10,24,08,07,4.80
2010,10,24,08,08,3.20
2010,10,24,08,09,1.60
2010,10,24,08,10,1.60
2010,10,24,08,21,3.20
2010,10,24,08,24,1.60
2010,10,24,08,25,3.20
2010,10,24,08,26,3.20
2010,10,24,08,27,4.80
2010,10,24,08,28,1.60
2010,10,24,08,29,1.60
2010,10,24,08,33,6.40
2010,10,24,08,34,6.40
2010,10,24,08,35,3.20
2010,10,24,08,36,1.60
2010,10,24,08,37,3.20
2010,10,24,08,38,3.20
2010,10,24,08,39,3.20
2010,10,24,08,40,1.60
2010,10,24,08,41,3.20
2010,10,24,08,42,3.20
2010,10,24,08,43,1.60
2010,10,24,08,44,1.60
2010,10,24,08,46,3.20
2010,10,24,08,47,3.20
2010,10,24,08,49,4.80
2010,10,24,08,50,1.60
2010,10,24,08,51,3.20
2010,10,24,08,53,3.20
2010,10,24,08,54,3.20
2010,10,24,08,55,6.40
2010,10,24,08,56,4.80
2010,10,24,08,57,6.40
2010,10,24,08,58,1.60
2010,10,24,09,04,1.60
2010,10,24,09,05,1.60
2010,10,24,09,07,1.60
2010,10,24,09,08,1.60
2010,10,24,09,09,6.40
2010,10,24,09,10,8.10
2010,10,24,09,11,6.40
2010,10,24,09,12,6.40
2010,10,24,09,13,6.40
2010,10,24,09,14,6.40
2010,10,24,09,15,6.40
2010,10,24,09,16,1.60
2010,10,24,09,17,4.80
2010,10,24,09,18,3.20
2010,10,24,09,19,3.20
2010,10,24,09,21,1.60
2010,10,24,09,22,1.60
2010,10,24,09,23,1.60
2010,10,24,09,24,4.80
2010,10,24,09,25,6.40
2010,10,24,09,26,6.40
2010,10,24,09,27,4.80
2010,10,24,09,28,1.60
2010,10,24,09,29,3.20
2010,10,24,09,30,3.20
2010,10,24,09,31,4.80
2010,10,24,09,32,4.80
2010,10,24,09,33,4.80
2010,10,24,09,34,3.20
2010,10,24,09,35,3.20
2010,10,24,09,36,3.20
2010,10,24,09,37,3.20
2010,10,24,09,38,4.80
2010,10,24,09,39,1.60
2010,10,24,09,40,3.20
2010,10,24,09,41,1.60
2010,10,24,09,44,1.60
2010,10,24,09,45,4.80
2010,10,24,09,46,6.40
2010,10,24,09,47,1.60
2010,10,24,09,48,1.60
2010,10,24,09,49,1.60
2010,10,24,09,54,1.60
2010,10,24,10,12,1.60
2010,10,24,10,13,1.60
2010,10,24,10,14,1.60
2010,10,24,10,19,1.60
2010,10,24,10,21,1.60
2010,10,24,10,22,1.60
2010,10,24,10,23,1.60
2010,10,24,10,25,1.60
2010,10,24,10,26,1.60
2010,10,24,10,27,1.60
2010,10,24,10,29,1.60
2010,10,24,10,30,1.60
2010,10,24,10,33,3.20
2010,10,24,10,34,1.60
2010,10,24,10,36,1.60
2010,10,24,10,37,3.20
2010,10,24,10,38,3.20
2010,10,24,10,39,1.60
2010,10,24,10,40,1.60
2010,10,24,10,41,1.60
2010,10,24,10,42,3.20
2010,10,24,10,43,8.10
2010,10,24,10,44,3.20
2010,10,24,10,45,1.60
2010,10,24,10,46,1.60
2010,10,24,10,47,1.60
2010,10,24,10,48,6.40
2010,10,24,10,49,6.40
2010,10,24,10,50,3.20
2010,10,24,10,51,3.20
2010,10,24,10,52,6.40
2010,10,24,10,53,8.10
2010,10,24,10,54,6.40
2010,10,24,10,55,4.80
2010,10,24,10,56,8.10
2010,10,24,10,57,3.20
2010,10,24,10,58,3.20
2010,10,24,10,59,8.10
2010,10,24,11,00,4.80
2010,10,24,11,01,4.80
2010,10,24,11,02,3.20
2010,10,24,11,03,6.40
2010,10,24,11,04,4.80
2010,10,24,11,05,1.60
2010,10,24,11,06,1.60
2010,10,24,11,07,3.20
2010,10,24,11,08,4.80
2010,10,24,11,09,6.40
2010,10,24,11,10,4.80
2010,10,24,11,11,8.10
2010,10,24,11,12,8.10
2010,10,24,11,13,8.10
2010,10,24,11,14,3.20
2010,10,24,11,15,4.80
2010,10,24,11,16,4.80
2010,10,24,11,17,8.10
2010,10,24,11,18,6.40
2010,10,24,11,20,6.40
2010,10,24,11,21,4.80
2010,10,24,11,22,6.40
2010,10,24,11,23,6.40
2010,10,24,11,24,6.40
2010,10,24,11,25,11.30
2010,10,24,11,26,9.60
2010,10,24,11,27,16.10
2010,10,24,11,28,11.30
2010,10,24,11,29,11.30
2010,10,24,11,30,12.90
2010,10,24,11,31,8.10
2010,10,24,11,32,6.40
2010,10,24,11,33,6.40
2010,10,24,11,34,11.30
2010,10,24,11,35,8.10
2010,10,24,11,36,9.60
2010,10,24,11,37,8.10
2010,10,24,11,38,8.10
2010,10,24,11,39,11.30
2010,10,24,11,40,12.90
2010,10,24,11,41,8.10
2010,10,24,11,42,11.30
2010,10,24,11,43,8.10
2010,10,24,11,44,11.30
2010,10,24,11,45,9.60
2010,10,24,11,46,9.60
2010,10,24,11,47,16.10
2010,10,24,11,48,12.90
2010,10,24,11,49,9.60
2010,10,24,11,50,6.40
2010,10,24,11,51,8.10
2010,10,24,11,52,12.90
2010,10,24,11,53,8.10
2010,10,24,11,54,8.10
2010,10,24,11,55,8.10
2010,10,24,11,56,8.10
2010,10,24,11,57,9.60
2010,10,24,11,58,16.10
2010,10,24,11,59,8.10
2010,10,24,12,00,8.10
2010,10,24,12,01,9.60
2010,10,24,12,02,9.60
2010,10,24,12,03,4.80
2010,10,24,12,04,6.40
2010,10,24,12,05,8.10
2010,10,24,12,06,17.70
2010,10,24,12,07,16.10
2010,10,24,12,08,9.60
2010,10,24,12,09,9.60
2010,10,24,12,10,11.30
2010,10,24,12,11,17.70
2010,10,24,12,12,9.60
2010,10,24,12,13,12.90
2010,10,24,12,14,11.30
2010,10,24,12,15,4.80
2010,10,24,12,16,9.60
2010,10,24,12,17,6.40
2010,10,24,12,18,4.80
2010,10,24,12,19,4.80
2010,10,24,12,20,4.80
2010,10,24,12,21,4.80
2010,10,24,12,22,4.80
2010,10,24,12,23,6.40
2010,10,24,12,24,6.40
2010,10,24,12,25,6.40
2010,10,24,12,26,3.20
2010,10,24,12,27,11.30
2010,10,24,12,28,8.10
2010,10,24,12,29,8.10
2010,10,24,12,30,8.10
2010,10,24,12,31,8.10
2010,10,24,12,32,6.40
2010,10,24,12,33,11.30
2010,10,24,12,34,8.10
2010,10,24,12,35,1.60
2010,10,24,12,36,9.60
2010,10,24,12,37,9.60
2010,10,24,12,38,6.40
2010,10,24,12,39,9.60
2010,10,24,12,40,6.40
2010,10,24,12,41,16.10
2010,10,24,12,42,11.30
2010,10,24,12,43,11.30
2010,10,24,12,44,12.90
2010,10,24,12,45,8.10
2010,10,24,12,46,8.10
2010,10,24,12,47,20.90
2010,10,24,12,48,12.90
2010,10,24,12,49,17.70
2010,10,24,12,50,11.30
2010,10,24,12,51,16.10
2010,10,24,12,52,11.30
2010,10,24,12,53,8.10
2010,10,24,12,54,11.30
2010,10,24,12,55,17.70
2010,10,24,12,56,22.50
2010,10,24,12,57,17.70
2010,10,24,12,58,14.50
2010,10,24,12,59,12.90
2010,10,24,13,00,14.50
2010,10,24,13,01,12.90
2010,10,24,13,02,12.90
2010,10,24,13,03,12.90
2010,10,24,13,04,20.90
2010,10,24,13,05,16.10
2010,10,24,13,06,12.90
2010,10,24,13,07,11.30
2010,10,24,13,08,11.30
2010,10,24,13,09,9.60
2010,10,24,13,10,6.40
2010,10,24,13,11,8.10
2010,10,24,13,12,12.90
2010,10,24,13,13,14.50
2010,10,24,13,14,12.90
2010,10,24,13,15,9.60
2010,10,24,13,16,16.10
2010,10,24,13,17,12.90
2010,10,24,13,18,9.60
2010,10,24,13,19,9.60
2010,10,24,13,20,17.70
2010,10,24,13,21,17.70
2010,10,24,13,22,19.30
2010,10,24,13,23,11.30
2010,10,24,13,24,12.90
2010,10,24,13,25,8.10
2010,10,24,13,26,12.90
2010,10,24,13,27,6.40
2010,10,24,13,28,8.10
2010,10,24,13,29,11.30
2010,10,24,13,30,3.20
2010,10,24,13,31,11.30
2010,10,24,13,32,9.60
2010,10,24,13,33,11.30
2010,10,24,13,34,9.60
2010,10,24,13,35,11.30
2010,10,24,13,36,9.60
2010,10,24,13,37,11.30
2010,10,24,13,38,4.80
2010,10,24,13,39,9.60
2010,10,24,13,40,11.30
2010,10,24,13,41,11.30
2010,10,24,13,42,6.40
2010,10,24,13,43,8.10
2010,10,24,13,44,6.40
2010,10,24,13,45,6.40
2010,10,24,13,46,6.40
2010,10,24,13,47,9.60
2010,10,24,13,48,6.40
2010,10,24,13,49,9.60
2010,10,24,13,50,6.40
2010,10,24,13,51,4.80
2010,10,24,13,52,6.40
2010,10,24,13,53,6.40
2010,10,24,13,54,6.40
2010,10,24,13,55,9.60
2010,10,24,13,56,9.60
2010,10,24,13,57,3.20
2010,10,24,13,58,4.80
2010,10,24,13,59,9.60
2010,10,24,14,00,6.40
2010,10,24,14,01,8.10
2010,10,24,14,02,4.80
2010,10,24,14,03,9.60
2010,10,24,14,04,8.10
2010,10,24,14,05,6.40
2010,10,24,14,06,6.40
2010,10,24,14,07,8.10
2010,10,24,14,08,8.10
2010,10,24,14,09,8.10
2010,10,24,14,10,8.10
2010,10,24,14,11,12.90
2010,10,24,14,12,11.30
2010,10,24,14,13,14.50
2010,10,24,14,14,14.50
2010,10,24,14,15,9.60
2010,10,24,14,16,11.30
2010,10,24,14,17,11.30
2010,10,24,14,18,8.10
2010,10,24,14,19,14.50
2010,10,24,14,20,16.10
2010,10,24,14,21,12.90
2010,10,24,14,22,12.90
2010,10,24,14,23,16.10
2010,10,24,14,24,11.30
2010,10,24,14,25,14.50
2010,10,24,14,26,14.50
2010,10,24,14,27,17.70
2010,10,24,14,28,20.90
2010,10,24,14,29,11.30
2010,10,24,14,30,9.60
2010,10,24,14,31,12.90
2010,10,24,14,32,14.50
2010,10,24,14,33,17.70
2010,10,24,14,34,19.30
2010,10,24,14,35,11.30
2010,10,24,14,36,11.30
2010,10,24,14,37,11.30
2010,10,24,14,38,11.30
2010,10,24,14,39,14.50
2010,10,24,14,40,12.90
2010,10,24,14,41,12.90
2010,10,24,14,42,11.30
2010,10,24,14,43,9.60
2010,10,24,14,44,11.30
2010,10,24,14,45,12.90
2010,10,24,14,46,9.60
2010,10,24,14,47,17.70
2010,10,24,14,48,14.50
2010,10,24,14,49,14.50
2010,10,24,14,50,16.10
2010,10,24,14,51,14.50
2010,10,24,14,52,20.90
2010,10,24,14,53,20.90
2010,10,24,14,54,14.50
2010,10,24,14,55,12.90
2010,10,24,14,56,11.30
2010,10,24,14,57,12.90
2010,10,24,14,58,19.30
2010,10,24,14,59,17.70
2010,10,24,15,00,11.30
2010,10,24,15,01,11.30
2010,10,24,15,02,14.50
2010,10,24,15,03,19.30
2010,10,24,15,04,17.70
2010,10,24,15,05,12.90
2010,10,24,15,06,11.30
2010,10,24,15,07,11.30
2010,10,24,15,08,11.30
2010,10,24,15,09,8.10
2010,10,24,15,10,9.60
2010,10,24,15,11,9.60
2010,10,24,15,12,11.30
2010,10,24,15,13,6.40
2010,10,24,15,14,6.40
2010,10,24,15,15,8.10
2010,10,24,15,16,8.10
2010,10,24,15,17,6.40
2010,10,24,15,18,3.20
2010,10,24,15,19,12.90
2010,10,24,15,20,8.10
2010,10,24,15,21,3.20
2010,10,24,15,22,9.60
2010,10,24,15,23,11.30
2010,10,24,15,24,8.10
2010,10,24,15,25,9.60
2010,10,24,15,26,8.10
2010,10,24,15,27,3.20
2010,10,24,15,28,3.20
2010,10,24,15,29,3.20
2010,10,24,15,30,6.40
2010,10,24,15,31,6.40
2010,10,24,15,32,6.40
2010,10,24,15,33,6.40
2010,10,24,15,34,12.90
2010,10,24,15,35,12.90
2010,10,24,15,36,11.30
2010,10,24,15,37,9.60
2010,10,24,15,38,8.10
2010,10,24,15,39,8.10
2010,10,24,15,40,8.10
2010,10,24,15,41,8.10
2010,10,24,15,42,1.60
2010,10,24,15,43,6.40
2010,10,24,15,44,8.10
2010,10,24,15,45,11.30
2010,10,24,15,46,8.10
2010,10,24,15,47,9.60
2010,10,24,15,48,12.90
2010,10,24,15,49,9.60
2010,10,24,15,50,12.90
2010,10,24,15,51,14.50
2010,10,24,15,52,17.70
2010,10,24,15,53,16.10
2010,10,24,15,54,6.40
2010,10,24,15,55,11.30
2010,10,24,15,56,11.30
2010,10,24,15,57,6.40
2010,10,24,15,58,9.60
2010,10,24,15,59,1.60
2010,10,24,16,00,3.20
2010,10,24,16,01,11.30
2010,10,24,16,02,16.10
2010,10,24,16,03,9.60
2010,10,24,16,04,8.10
2010,10,24,16,05,8.10
2010,10,24,16,06,8.10
2010,10,24,16,07,8.10
2010,10,24,16,08,12.90
2010,10,24,16,09,8.10
2010,10,24,16,10,9.60
2010,10,24,16,11,11.30
2010,10,24,16,12,12.90
2010,10,24,16,13,11.30
2010,10,24,16,14,9.60
2010,10,24,16,15,9.60
2010,10,24,16,16,14.50
2010,10,24,16,17,9.60
2010,10,24,16,18,12.90
2010,10,24,16,19,6.40
2010,10,24,16,20,11.30
2010,10,24,16,21,8.10
2010,10,24,16,22,9.60
2010,10,24,16,23,9.60
2010,10,24,16,24,11.30
2010,10,24,16,25,11.30
2010,10,24,16,26,11.30
2010,10,24,16,27,9.60
2010,10,24,16,28,6.40
2010,10,24,16,29,8.10
2010,10,24,16,30,9.60
2010,10,24,16,31,3.20
2010,10,24,16,32,6.40
2010,10,24,16,33,3.20
2010,10,24,16,34,12.90
2010,10,24,16,35,8.10
2010,10,24,16,36,3.20
2010,10,24,16,37,6.40
2010,10,24,16,38,6.40
2010,10,24,16,39,3.20
2010,10,24,16,40,1.60
2010,10,24,16,41,6.40
2010,10,24,16,42,8.10
2010,10,24,16,43,1.60
2010,10,24,16,44,6.40
2010,10,24,16,45,6.40
2010,10,24,16,46,3.20
2010,10,24,16,47,8.10
2010,10,24,16,48,9.60
2010,10,24,16,49,8.10
2010,10,24,16,50,6.40
2010,10,24,16,51,3.20
2010,10,24,16,52,6.40
2010,10,24,16,53,6.40
2010,10,24,16,54,6.40
2010,10,24,16,55,3.20
2010,10,24,16,56,3.20
2010,10,24,16,57,3.20
2010,10,24,16,58,1.60
2010,10,24,17,00,1.60
2010,10,24,17,01,8.10
2010,10,24,17,02,3.20
2010,10,24,17,03,1.60
2010,10,24,17,04,1.60
2010,10,24,17,05,6.40
2010,10,24,17,06,6.40
2010,10,24,17,08,3.20
2010,10,24,17,09,3.20
2010,10,24,17,10,3.20
2010,10,24,17,11,1.60
2010,10,24,17,13,3.20
2010,10,24,17,14,3.20
2010,10,24,17,15,3.20
2010,10,24,17,16,3.20
2010,10,24,17,17,1.60
2010,10,24,17,18,8.10
2010,10,24,17,19,3.20
2010,10,24,17,20,1.60
2010,10,24,17,21,3.20
2010,10,24,17,22,6.40
2010,10,24,17,23,3.20
2010,10,24,17,24,6.40
2010,10,24,17,25,1.60
2010,10,24,17,29,1.60
2010,10,24,17,33,3.20
2010,10,24,17,43,1.60
2010,10,24,17,46,1.60
2010,10,24,17,47,1.60
2010,10,24,17,48,1.60
2010,10,24,17,52,3.20
2010,10,24,17,53,3.20
2010,10,24,17,54,3.20
2010,10,24,17,55,6.40
2010,10,24,18,15,1.60
2010,10,24,18,16,1.60
2010,10,24,18,17,3.20
2010,10,24,18,20,1.60
2010,10,24,18,25,1.60
2010,10,24,18,29,1.60
2010,10,24,18,30,6.40
2010,10,24,18,31,6.40
2010,10,24,18,32,3.20
2010,10,24,18,33,1.60
2010,10,24,18,34,1.60
2010,10,24,18,39,1.60
2010,10,24,18,40,1.60
2010,10,24,18,41,3.20
2010,10,24,18,52,1.60
2010,10,24,18,53,1.60
2010,10,24,18,55,1.60
2010,10,24,18,59,1.60
2010,10,24,19,03,1.60
2010,10,24,19,04,3.20
2010,10,24,19,05,3.20
2010,10,24,19,06,3.20
2010,10,24,19,07,8.10
2010,10,24,19,08,3.20
2010,10,24,19,09,3.20
2010,10,24,19,10,6.40
2010,10,24,19,11,3.20
2010,10,24,19,12,6.40
2010,10,24,19,13,6.40
2010,10,24,19,14,1.60
2010,10,24,19,15,3.20
2010,10,24,19,16,1.60
2010,10,24,19,17,1.60
2010,10,24,19,18,1.60
2010,10,24,19,19,3.20
2010,10,24,19,20,8.10
2010,10,24,19,21,8.10
2010,10,24,19,22,6.40
2010,10,24,19,23,1.60
2010,10,24,19,24,1.60
2010,10,24,19,25,1.60
2010,10,24,19,26,3.20
2010,10,24,19,27,1.60
2010,10,24,19,29,3.20
2010,10,24,19,30,3.20
2010,10,24,19,31,6.40
2010,10,24,19,32,6.40
2010,10,24,19,33,4.80
2010,10,24,19,34,3.20
2010,10,24,19,35,3.20
2010,10,24,19,36,3.20
2010,10,24,19,37,3.20
2010,10,24,19,38,1.60
2010,10,24,19,39,3.20
2010,10,24,19,40,3.20
2010,10,24,19,41,3.20
2010,10,24,19,42,3.20
2010,10,24,19,43,3.20
2010,10,24,19,44,3.20
2010,10,24,19,45,3.20
2010,10,24,19,46,1.60
2010,10,24,19,47,1.60
2010,10,24,19,48,1.60
2010,10,24,19,49,1.60
2010,10,24,19,51,1.60
2010,10,24,19,55,1.60
2010,10,24,20,03,1.60
2010,10,24,20,04,1.60
2010,10,24,20,05,1.60
2010,10,24,20,07,1.60
2010,10,24,20,08,3.20
2010,10,24,20,09,3.20
2010,10,24,20,10,3.20
2010,10,24,20,11,3.20
2010,10,24,20,12,1.60
2010,10,24,20,13,1.60
2010,10,24,20,14,3.20
2010,10,24,20,15,3.20
2010,10,24,20,16,1.60
2010,10,24,20,17,1.60
2010,10,24,20,19,1.60
2010,10,24,20,23,1.60
2010,10,24,20,35,1.60
2010,10,24,20,36,3.20
2010,10,24,20,37,3.20
2010,10,24,20,38,1.60
2010,10,24,20,40,3.20
2010,10,24,20,41,6.40
2010,10,24,20,42,4.80
2010,10,24,20,45,3.20
2010,10,24,20,46,3.20
2010,10,24,20,47,3.20
2010,10,24,20,48,4.80
2010,10,24,20,49,4.80
2010,10,24,20,50,4.80
2010,10,24,20,51,4.80
2010,10,24,20,52,6.40
2010,10,24,20,53,4.80
2010,10,24,20,54,1.60
2010,10,24,20,55,1.60
2010,10,24,20,56,1.60
2010,10,24,20,57,3.20
2010,10,24,20,58,1.60
2010,10,24,20,59,1.60
2010,10,24,21,01,1.60
2010,10,24,21,05,1.60
2010,10,24,21,06,1.60
2010,10,24,21,07,1.60
2010,10,24,21,16,1.60
2010,10,24,21,18,8.10
2010,10,24,21,19,8.10
2010,10,24,21,20,6.40
2010,10,24,21,23,1.60
2010,10,24,21,24,1.60
2010,10,24,21,29,1.60
2010,10,24,21,32,1.60
2010,10,24,21,33,1.60
2010,10,24,21,37,3.20
2010,10,24,21,38,3.20
2010,10,24,21,39,3.20
2010,10,24,21,40,3.20
2010,10,24,21,41,3.20
2010,10,24,21,42,1.60
2010,10,24,21,43,3.20
2010,10,24,21,45,1.60
2010,10,24,21,46,3.20
2010,10,24,21,47,1.60
2010,10,24,21,48,1.60
2010,10,24,21,49,1.60
2010,10,24,21,50,1.60
2010,10,24,21,51,1.60
2010,10,24,21,53,1.60
2010,10,24,21,54,1.60
2010,10,24,21,59,1.60
2010,10,24,22,00,3.20
2010,10,24,22,01,3.20
2010,10,24,22,02,1.60
2010,10,24,22,04,1.60
2010,10,24,22,05,3.20
2010,10,24,22,06,6.40
2010,10,24,22,07,6.40
2010,10,24,22,08,3.20
2010,10,24,22,09,1.60
2010,10,24,22,10,1.60
2010,10,24,22,11,1.60
2010,10,24,22,12,3.20
2010,10,24,22,13,3.20
2010,10,24,22,14,9.60
2010,10,24,22,15,6.40
2010,10,24,22,16,3.20